Regional Weather Roundup
Issued by NWS Northern Indiana

Home | Current Version | Previous Version | Text Only | Print | Product List | Glossary Off
Versions: 1 2 3 4 5 6 7 8 9 10 11 12 13 14 15 16 17 18 19 20 21 22 23 24 25 26 27 28 29 30 31 32 33 34 35 36 37 38 39 40 41 42 43 44 45 46 47 48 49 50

000
ASUS43 KIWX 232000
RWRIWX

KIWX WEATHER ROUNDUP
NATIONAL WEATHER SERVICE NORTHERN INDIANA
400 PM EDT WED JUL 23 2014

NOTE: "FAIR" INDICATES FEW OR NO CLOUDS BELOW 12,000 FEET WITH NO
SIGNIFICANT WEATHER AND/OR OBSTRUCTIONS TO VISIBILITY.

* THESE STATIONS ARE NOT UNDER NWS QUALITY CONTROL. THEY ALSO MAY NOT
  REPORT WEATHER SUCH AS PRECIPITATION OR FOG.

INZ001>027-232100-
NORTHERN INDIANA

CITY           SKY/WX    TMP DP  RH WIND       PRES   REMARKS
GARY*          MOSUNNY   68  57  68 N14G30    30.16R
VALPARAISO     SUNNY     67  56  67 N13G24    30.13R
KNOX*          MOSUNNY   71  58  64 N13G20    30.09S
SOUTH BEND     MOSUNNY   73  59  61 N16       30.09S
ELKHART*       PTSUNNY   73  55  53 N12       30.08S
GOSHEN         PTSUNNY   74  58  57 N9        30.06F
MONTICELLO*    SUNNY     75  63  66 N18       30.06R
WARSAW*        PTSUNNY   73  61  64 NW9G24    30.06S
ANGOLA*        PTSUNNY   75  59  57 NE9       30.05S
FORT WAYNE     PTSUNNY   72  62  71 N13       30.05S
PERU/GRISSOM   MOSUNNY   75  66  73 N13       30.04F

$$
INZ028>050-232100-
CENTRAL INDIANA

CITY           SKY/WX    TMP DP  RH WIND       PRES   REMARKS
LAFAYETTE      MOSUNNY   77  61  57 N15G22    30.05F
KOKOMO*        CLOUDY    73  66  78 N12       30.04F
MUNCIE*        CLOUDY    72  67  84 N14       30.03F
INDIANAPOLIS   CLOUDY    74  69  85 N13       30.02F

$$
MIZ043>046-050>051-056>058-064>065-071>073-077>080-232100-
SOUTHWEST LOWER MICHIGAN

CITY           SKY/WX    TMP DP  RH WIND       PRES   REMARKS
BATTLE CREEK   PTSUNNY   73  55  53 N9        30.08F
BENTON HARBOR  MOSUNNY   67  59  75 N8G17     30.11F
COLDWATER*     CLOUDY    75  58  54 N8        30.06S
HILLSDALE*     PTSUNNY   73  58  59 N10       30.07R
HOLLAND        SUNNY     72  60  66 NW13G21   30.11S
GRAND RAPIDS   PTSUNNY   76  55  48 N9        30.09F
KALAMAZOO      CLOUDY    73  55  53 N10       30.08F
STURGIS*       MOSUNNY   73  61  64 N10G17    30.06S
THREE RIVERS*  CLOUDY    72  60  65 N8        30.08S

$$
OHZ001>008-015>018-024>025-232100-
NORTHWEST OHIO

CITY           SKY/WX    TMP DP  RH WIND       PRES   REMARKS
DEFIANCE       CLOUDY    75  61  61 NE9       30.03F
FINDLAY        CLOUDY    70  63  78 N14       30.02F
TOLEDO EXPRESS CLOUDY    75  60  59 N13       30.03F
TOLEDO METCALF CLOUDY    74  61  63 N6        30.04S
LIMA           CLOUDY    70  67  90 N10G20    30.03R FOG

$$
&&


USA.gov is the U.S. government's official web portal to all federal, state and local government web resources and services.